User: anonymous   Login
Location: Turtle Rock Observatory
(36.6913°N, 81.9708°W)
Time: 13:08:29
(UTC-05:00)
Language:

Cosmos 1125 Rocket - Orbit

View from above orbital plane
View from above orbital plane
View from above satellite
View from above satellite

Ground track
Ground track

The orbit data is extracted from the following two-line orbital elements,

1 11511U 79078B   15032.32265142  .00000237  00000-0  89591-4 0    41
2 11511 074.0370 108.3926 0016028 209.0042 213.9965 14.36553333854148
Epoch (UTC): 01 February 2015 07:44:37
Eccentricity: 0.0016028
inclination: 74.0370°
perigee height: 758 km
apogee height: 781 km
right ascension of ascending node: 108.3926°
argument of perigee: 209.0042°
revolutions per day: 14.36553333
mean anomaly at epoch: 213.9965°
orbit number at epoch: 85414

The dashed part of the orbit path shows where the satellite is in the earth's shadow,  

DLR